星链-31418 (STARLINK-31418 )

导读

STARLINK-31418是美国SpaceX公司星链(Starlink)项目的第二代(Gen2)卫星,于2024年3月16日发射入轨,属于星链大规模星座扩容的一部分。作为第二代主力卫星,它配备增强型相控阵天线与激光星间链路,单星容量超100 Gbps,可提供百兆至千兆级用户终端网速,支持全球覆盖的低延迟宽带互联网服务。卫星采用氪离子推进系统,具备自主避碰能力,退役后会在大气层完全烧毁,减少空间碎片影响,服务偏远地区接入、应急通信与移动互联网等场景。

Basic Information
目录编号:
59251
目录名称:
STARLINK-31418
国际标识:
2024-049W
轨道中心:
EARTH
卫星名称:
星链-31418
卫星全名:
星链-31418 (STARLINK-31418 )
卫星状态:
已陨落 最后检测时间 2025-03-17
发射日期:
2024-03-16 UTC
国别 :
美国 (US)
星等 :
--
Orbit Information
数据来源 国际轨道数据
星历时间: 2025-03-17T02:35:31+0800
轨道信息已过期458天
半长轴: 6570.635km
偏心率: 0.0014601
轨道倾角: 42.977°
近地点辐角 235.876°
升交点赤经 328.792°
平近点角 172.929°
近地点: 182.906km
远地点: 202.094km
周期: 88.343分钟
每日圈数: 16.300159
Detailed Information
固有亮度:
5
最大亮度:
0.3
卫星平台:
Starlink v2.0 mini
覆盖范围:
全球
运营商:
太空探索技术公司
运营商所在国:
美国
制造商(研发单位):
太空探索技术公司
制造商所在国:
美国
使用方式:
暂无
Satellite Introduction
星链(Starlink)计划是由太空探索技术公司(SpaceX)提出的一个巨型低轨卫星互联网星座项目,计划在2019年至2024年间在太空搭建由约1.2万颗卫星组成的“星链”网络,其中1584颗将部署在地球上空550千米处的近地轨道,并从2020年开始工作。该卫星仍在工作。